EDT,Max TemperatureF,Mean TemperatureF,Min TemperatureF,Max Dew PointF,MeanDew PointF,Min DewpointF,Max Humidity, Mean Humidity, Min Humidity, Max Sea Level PressureIn, Mean Sea Level PressureIn, Min Sea Level PressureIn, Max VisibilityMiles, Mean VisibilityMiles, Min VisibilityMiles, Max Wind SpeedMPH, Mean Wind SpeedMPH, Max Gust SpeedMPH,PrecipitationIn, CloudCover, Events, WindDirDegrees
2013-7-1,84,75,68,72,69,68,100,92,65,29.95,29.88,29.81,10,8,0,13,4,,1.17,7,Fog-Rain-Thunderstorm,141
2013-7-2,84,77,70,72,71,69,100,88,63,30.13,30.03,29.94,10,10,10,13,5,,0.02,6,Rain,167
2013-7-3,84,76,69,73,71,68,100,91,67,30.20,30.15,30.09,10,8,2,14,4,24,0.73,7,Rain-Thunderstorm,134
2013-7-4,82,76,69,75,71,66,100,94,76,30.22,30.18,30.12,10,7,1,17,5,33,2.10,7,Rain-Thunderstorm,106
2013-7-5,87,76,69,73,71,68,100,91,58,30.24,30.20,30.15,10,10,2,10,3,,0.23,7,Rain-Thunderstorm,100
2013-7-6,86,78,71,75,72,69,100,90,63,30.23,30.18,30.10,10,10,10,12,6,,0.11,6,Rain,140
2013-7-7,84,78,71,74,73,70,100,91,65,30.20,30.15,30.09,10,7,0,12,5,,1.13,7,Fog-Rain-Thunderstorm,207
2013-7-8,88,80,72,77,73,71,100,88,57,30.21,30.16,30.10,10,8,1,14,4,20,1.79,5,Rain-Thunderstorm,201
2013-7-9,88,78,69,75,72,70,100,90,63,30.22,30.16,30.06,10,9,1,17,6,23,1.44,6,Rain-Thunderstorm,223
2013-7-10,87,78,69,74,72,69,100,90,65,30.16,30.05,29.96,10,10,2,14,5,,0.19,5,Rain-Thunderstorm,190
2013-7-11,82,78,73,75,73,72,100,90,74,30.00,29.95,29.88,10,9,2,9,3,,0.02,6,Rain,222
2013-7-12,87,76,66,75,71,64,100,88,63,30.00,29.92,29.88,10,8,1,22,5,36,1.79,6,Rain-Thunderstorm,157
2013-7-13,80,74,68,72,69,66,100,88,71,30.10,30.04,29.98,10,10,8,12,8,,0.03,6,Rain-Thunderstorm,56
2013-7-14,81,76,71,73,72,70,100,90,72,30.27,30.17,30.08,10,9,1,17,8,24,0.65,7,Rain-Thunderstorm,93
2013-7-15,84,78,71,74,72,70,100,88,67,30.33,30.29,30.23,10,9,1,17,6,25,0.30,6,Rain-Thunderstorm,73
2013-7-16,89,79,70,75,71,69,97,78,53,30.31,30.27,30.23,10,10,3,7,1,,0.00,1,,109
2013-7-17,93,81,69,74,71,68,100,80,49,30.25,30.21,30.13,10,9,2,16,2,30,0.63,3,Rain-Thunderstorm,358
2013-7-18,89,78,69,74,71,69,100,80,53,30.23,30.13,30.07,10,10,6,8,3,,0.01,1,,147
2013-7-19,90,80,72,75,73,71,100,80,57,30.15,30.07,29.98,10,9,4,9,2,,0.00,1,,206
2013-7-20,87,80,73,74,73,71,100,87,63,30.07,30.01,29.94,10,10,6,12,5,17,0.02,5,Rain,190
2013-7-21,89,80,71,73,72,70,100,92,59,30.04,29.99,29.91,10,5,0,15,4,24,1.07,5,Fog-Rain-Thunderstorm,231
2013-7-22,87,78,71,74,72,70,100,90,61,30.02,29.95,29.88,10,9,2,16,7,29,0.53,5,Rain-Thunderstorm,241
2013-7-23,88,78,70,73,71,68,97,78,59,29.91,29.86,29.80,10,10,10,15,7,23,0.01,0,,245
2013-7-24,88,79,71,73,71,70,97,77,58,29.83,29.81,29.77,10,10,10,9,4,,0.00,0,Thunderstorm,264
2013-7-25,87,78,70,71,69,63,97,74,55,30.01,29.92,29.83,10,10,10,12,3,17,0.00,1,,45
2013-7-26,87,76,69,73,69,66,94,80,58,30.10,30.04,29.99,10,10,10,8,4,,0.00,4,,94
2013-7-27,82,76,69,73,72,70,100,91,69,30.02,29.98,29.90,10,7,1,12,5,,0.93,6,Rain-Thunderstorm,221
2013-7-28,87,77,68,73,70,66,100,87,57,30.02,29.97,29.91,10,6,0,31,3,37,0.55,2,Fog-Rain-Thunderstorm,234
2013-7-29,86,77,68,71,68,63,100,81,46,30.14,30.07,30.01,10,9,2,7,1,,0.00,0,,284
2013-7-30,86,76,66,72,68,62,93,76,57,30.21,30.16,30.12,10,10,10,7,4,,0.00,2,,88
2013-7-31,82,78,73,74,71,66,94,85,66,30.15,30.07,29.97,10,10,9,13,4,,0.00,5,Thunderstorm,180